Zurück zum Katalog

STARLINK-4336

AktivKommunikationSSO
NORAD 53051·PAYLOAD·🇺🇸 United States

Gestartet Jul 11, 2022 von Vandenberg Space Force Base

Loading…

Nächste Überflüge (nächste 24 Stunden)

TLE

AktuellSource: CelesTrak SupGP

Epoche: Sep 14, 2026, 20:34 UTC

1 53051C 22077J   26257.85743056  .00087116  00000+0  27054-2 0  2571
2 53051  97.2855  72.8000 0001615  90.3425  74.1129 15.33381184    17

Verfolge STARLINK-4336 in Echtzeit mit AllMySat

Download on the App Store